Content
SEND FEEDBACK

Daily
Averages
Monthly
Summary
Saudi Arabia

AL HUFUF, SAUDI ARABIA


Home > Middle East > Saudi Arabia
Elevation: 171 meters     Latitude: 25 17N     Longitude: 049 29E

WEATHER
 
SELECT A DAY
Number of Records: 177,946;   Date Range: 7/1/96 - 8/12/14
 
SHARE

PRINT THIS DATA

[ ← Previous Day ]
WEATHER ALMANAC - 31 JANUARY, 2013
[ Next Day → ]
[ °F ]   °C
Weather ElementAverageHighLow
Temperature18.4 °C23 °C (3:00 pm)13 °C (4:00 am)
Dewpoint11.7 °C16.1 °C (9:00 pm)10 °C (12:00 am)
Humidity64.3 %88 % (11:00 pm)36 % (3:00 pm)
Barometer1011.9 hPa1014.2 hPa (9:00 am)1009.1 hPa (3:00 pm)
Wind Speed9.3 km/h24.1 km/h (2:00 pm)
Weather ElementAverage
Visibility9.3 km
Wind DirectionE (87.4 °)

Weather ElementTotal
Precipitation---
Heating Degree Days0.3 (Base 18.3)
Growing Degree Days8 (Base 10)
Averaged from 29 records on 31 January, 2013
WEATHER CONDITIONS BREAKOUT
WIND DIRECTION BREAKOUT
WEATHER BY HOUR - 31 JANUARY, 2013
[ °F ]   °C
Local TimeTemperatureDewpointHumidityBarometerVisibilityWind DirectionWind SpeedGust SpeedPrecipitationEventsConditions
12:00 AM16 °C10 °C68 %1013.2 hPaEast (90°)7.4 km/hClear
1:00 AM15 °C10 °C72 %1013.2 hPaSSE (150°)9.3 km/hClear
2:00 AM15 °C10 °C72 %1013.2 hPaCalmClear
4:00 AM13 °C10 °C82 %1012.2 hPaCalmClear
5:00 AM13 °C10 °C82 %1013.2 hPaCalmClear
6:00 AM13.3 °C10 °C74 %1012.9 hPa9.7 kmCalmScattered Clouds
6:00 AM13 °C10 °C82 %1013.2 hPaCalmClear
7:00 AM14 °C11 °C82 %1013.2 hPa5 kmCalmMist
8:00 AM15 °C11 °C77 %1013.2 hPa5 kmEast (100°)7.4 km/hMist
9:00 AM16.7 °C12.2 °C66 %1013.9 hPa9.7 kmESE (120°)13 km/hOvercast
9:00 AM17 °C12 °C72 %1014.2 hPaESE (120°)13 km/hClear
10:00 AM18 °C12 °C68 %1014.2 hPaEast (100°)14.8 km/hClear
11:00 AM20 °C11 °C56 %1014.2 hPaESE (110°)13 km/hClear
12:00 PM20 °C10 °C52 %1012.2 hPaSSE (150°)16.7 km/hClear
12:00 PM20 °C10 °C42 %1012.2 hPa9.7 kmSSE (150°)16.7 km/hMostly Cloudy
1:00 PM21 °C10 °C49 %1011.2 hPa10 kmESE (120°)20.4 km/hOvercast
2:00 PM22 °C10 °C46 %1010.2 hPa10 kmSE (130°)24.1 km/hMostly Cloudy
3:00 PM22.8 °C11.1 °C36 %1009.5 hPa9.7 kmSE (140°)14.8 km/hOvercast
3:00 PM23 °C11 °C47 %1009.1 hPa10 kmSE (140°)14.8 km/hOvercast
4:00 PM23 °C11 °C47 %1009.1 hPa10 kmSE (140°)14.8 km/hOvercast
5:00 PM23 °C12 °C50 %1009.1 hPa10 kmSSE (150°)13 km/hOvercast
6:00 PM22 °C12 °C53 %1010.2 hPa10 kmCalmRainRain
6:00 PM22.2 °C12.2 °C42 %1010.2 hPa9.7 kmCalmRainLight Rain
7:00 PM21 °C14 °C64 %1010.2 hPa10 kmCalmRainRain
8:00 PM21 °C14 °C64 %1010.2 hPa10 kmCalmRainRain
9:00 PM20 °C16.1 °C71 %1010.8 hPa9.7 kmNNE (30°)13 km/hOvercast
9:00 PM20 °C16 °C78 %1011.2 hPaNNE (30°)13 km/hClear
10:00 PM18 °C15 °C83 %1011.2 hPa10 kmNNE (30°)16.7 km/hRainRain
11:00 PM17 °C15 °C88 %1011.2 hPaNorth (360°)13 km/hClear
Hourly data recorded from OEAH, located 0 kilometers away from Al Hufuf, Saudi Arabia







STORIES FROM OUR PARTNERS